Regional Weather Roundup
Issued by NWS

Home | Current Version | Previous Version | Text Only | Print | Product List | Glossary On
Versions: 1 2 3 4 5 6 7 8 9 10 11 12 13 14 15 16 17 18 19 20 21 22 23 24 25 26 27 28 29 30 31 32 33 34 35 36 37 38 39 40 41 42 43 44 45 46 47 48 49 50
492
ASUS45 KCYS 231110
RWRWY

WYOMING REGIONAL WEATHER ROUNDUP
NATIONAL WEATHER SERVICE CHEYENNE WY
500 AM MDT MON OCT 23 2017

NOTE:  "FAIR" INDICATES FEW OR NO CLOUDS BELOW 12,000 FEET
WITH NO SIGNIFICANT WEATHER AND/OR OBSTRUCTIONS TO VISIBILITY.

WYZ001-231200-
YELLOWSTONE NATIONAL PARK

CITY           SKY/WX    TMP DP  RH WIND       PRES   REMARKS
LK YELLOWSTONE   N/A     28  19  69 W5        30.46S WCI  23
W YELLOWSTONE  NOT AVBL

$$
WYZ002>013-054>058-071-098>099-231200-
NORTHERN WYOMING

CITY           SKY/WX    TMP DP  RH WIND       PRES   REMARKS
JACKSON        MOCLDY    39  21  48 W9        30.47R WCI  33
CODY           FAIR      45  17  32 NW10      30.37R
GREYBULL       FAIR      45  20  36 NW14      30.33R
WORLAND        FAIR      42  22  44 NW5       30.33R
SHERIDAN       FAIR      43  23  45 NW13      30.29R
BUFFALO        FAIR      43  14  31 NW15G25   30.30R
GILLETTE       FAIR      42  22  44 NW20G31   30.27R
HULETT         FAIR      45  19  36 NW10G16   30.23R
NEWCASTLE      FAIR      37  19  48 NW14      30.23R WCI  29

$$
WYZ014>020-022>026-101>103-231200-
CENTRAL WYOMING

CITY           SKY/WX    TMP DP  RH WIND       PRES   REMARKS
BIG PINEY      FAIR      42  27  55 N22       30.40F
PINEDALE       FAIR      37  28  70 NW15G23   30.41S WCI  28
DUBOIS         CLOUDY    36  27  69 NW21G33   30.38R WCI  24
LANDER         FAIR      43  31  62 S5        30.33R
RIVERTON       FAIR      40  29  64 SW6       30.34R
CASPER         CLOUDY    43  30  60 NW5       30.32R
DOUGLAS        CLOUDY    40  30  67 NW6       30.32R

$$
WYZ021-027>030-104>119-231200-
SOUTHERN WYOMING

CITY           SKY/WX    TMP DP  RH WIND       PRES   REMARKS
EVANSTON       FAIR      43  33  68 W10       30.50S
KEMMERER       FAIR      43  32  65 W26G41    30.43S
FORT BRIDGER   FAIR      45  33  62 W14       30.52R
ROCK SPRINGS   FAIR      44  30  57 W23G32    30.41R
DIXON          FAIR      49  31  50 W17       30.43F
RAWLINS        FAIR      45  30  55 W26G37    30.34R
SARATOGA       FAIR      45  30  57 W20G29    30.38S
LARAMIE        FAIR      46  26  45 W28G38    30.30R
CHEYENNE       CLOUDY    43  32  65 NE16G25   30.28R
TORRINGTON     CLOUDY    43  30  60 NW20G35   30.29R
PINE BLUFFS    CLOUDY    41  32  70 N26G32    30.29R

$$




USA.gov is the U.S. government's official web portal to all federal, state and local government web resources and services.